When you browse on this site, cookies collect data to enhance your experience and personalize the content and advertising you see.
Visit our Privacy Policy to learn more. By continuing to use the site, you agree to this use of cookies and data.

Hourly Weather Winnipeg

Today, 22 September, Tuesday

Time Temperature Precipitation Wind Pressure Humidity
00:00 +15°C° 0 mm 2 mps 740 mmHg 64%
01:00 +14°C° 0 mm 1 mps 740 mmHg 66%
02:00 +14°C° 0 mm 1 mps 740 mmHg 67%
03:00 +13°C° 0 mm 1 mps 740 mmHg 68%
04:00 +13°C° 0 mm 1 mps 740 mmHg 68%
05:00 +13°C° 0 mm 1 mps 741 mmHg 67%
06:00 +13°C° 0 mm 2 mps 741 mmHg 66%
07:00 +15°C° 0 mm 2 mps 741 mmHg 60%
08:00 +16°C° 0 mm 2 mps 740 mmHg 53%
09:00 +18°C° 0 mm 3 mps 740 mmHg 46%
10:00 +21°C° 0 mm 4 mps 740 mmHg 40%
11:00 +23°C° 0 mm 5 mps 740 mmHg 33%
12:00 +27°C° 0 mm 6 mps 740 mmHg 27%
13:00 +28°C° 0 mm 5 mps 739 mmHg 26%
14:00 +29°C° 0 mm 5 mps 738 mmHg 24%
15:00 +32°C° 0 mm 5 mps 737 mmHg 23%
16:00 +29°C° 0 mm 5 mps 737 mmHg 25%
17:00 +28°C° 0 mm 4 mps 736 mmHg 28%
18:00 +26°C° 0 mm 3 mps 736 mmHg 31%
19:00 +25°C° 0 mm 2 mps 736 mmHg 34%
20:00 +23°C° 0 mm 2 mps 736 mmHg 37%
21:00 +20°C° 0 mm 2 mps 736 mmHg 40%
22:00 +19°C° 0 mm 3 mps 737 mmHg 47%
23:00 +18°C° 0 mm 3 mps 737 mmHg 54%

Tomorrow, 23 September, Wednesday

Time Temperature Precipitation Wind Pressure Humidity
00:00 +17°C° 0 mm 4 mps 737 mmHg 61%
01:00 +15°C° 0 mm 5 mps 738 mmHg 65%
02:00 +14°C° 0 mm 5 mps 738 mmHg 70%
03:00 +14°C° 0 mm 5 mps 738 mmHg 74%
04:00 +13°C° 0 mm 5 mps 739 mmHg 77%
05:00 +13°C° 0 mm 5 mps 739 mmHg 81%
06:00 +12°C° 0 mm 5 mps 739 mmHg 84%
07:00 +13°C° 0 mm 5 mps 740 mmHg 79%
08:00 +14°C° 0 mm 5 mps 740 mmHg 75%
09:00 +14°C° 0 mm 4 mps 740 mmHg 71%
10:00 +15°C° 0 mm 5 mps 740 mmHg 67%
11:00 +16°C° 0 mm 5 mps 740 mmHg 63%
12:00 +16°C° 0 mm 5 mps 740 mmHg 59%
13:00 +17°C° 0.3 mm 4 mps 740 mmHg 57%
14:00 +18°C° 0.3 mm 4 mps 740 mmHg 56%
15:00 +18°C° 0.3 mm 4 mps 740 mmHg 54%
16:00 +17°C° 0 mm 4 mps 740 mmHg 55%
17:00 +16°C° 0 mm 3 mps 740 mmHg 55%
18:00 +14°C° 0 mm 3 mps 740 mmHg 56%
19:00 +13°C° 0 mm 3 mps 740 mmHg 60%
20:00 +12°C° 0 mm 3 mps 740 mmHg 65%
21:00 +12°C° 0 mm 2 mps 740 mmHg 69%
22:00 +10°C° 0 mm 2 mps 740 mmHg 71%
23:00 +10°C° 0 mm 2 mps 740 mmHg 73%

Day after tomorrow, 24 September, Thursday

Time Temperature Precipitation Wind Pressure Humidity
00:00 +9°C° 0 mm 2 mps 740 mmHg 74%
01:00 +9°C° 0 mm 2 mps 739 mmHg 77%
02:00 +9°C° 0 mm 2 mps 739 mmHg 79%
03:00 +8°C° 0 mm 2 mps 739 mmHg 82%
04:00 +8°C° 0 mm 2 mps 739 mmHg 85%
05:00 +8°C° 0 mm 2 mps 739 mmHg 88%
06:00 +7°C° 0 mm 2 mps 738 mmHg 91%
07:00 +9°C° 0 mm 2 mps 738 mmHg 84%
08:00 +11°C° 0 mm 3 mps 738 mmHg 77%
09:00 +13°C° 0 mm 3 mps 738 mmHg 70%
10:00 +16°C° 0 mm 3 mps 737 mmHg 60%
11:00 +19°C° 0 mm 4 mps 737 mmHg 50%
12:00 +21°C° 0 mm 4 mps 736 mmHg 41%
13:00 +22°C° 0 mm 5 mps 735 mmHg 38%
14:00 +23°C° 0 mm 5 mps 734 mmHg 36%
15:00 +24°C° 0 mm 6 mps 734 mmHg 33%
16:00 +23°C° 0 mm 5 mps 733 mmHg 36%
17:00 +22°C° 0 mm 5 mps 732 mmHg 39%
18:00 +22°C° 0 mm 5 mps 731 mmHg 42%
19:00 +21°C° 0 mm 5 mps 731 mmHg 43%
20:00 +21°C° 0 mm 6 mps 730 mmHg 44%
21:00 +21°C° 0 mm 7 mps 730 mmHg 46%
22:00 +21°C° 0.1 mm 7 mps 729 mmHg 46%
23:00 +21°C° 0.1 mm 7 mps 729 mmHg 47%

25 September, Friday

Time Temperature Precipitation Wind Pressure Humidity
00:00 +21°C° 0.1 mm 7 mps 728 mmHg 48%
01:00 +21°C° 0.1 mm 6 mps 729 mmHg 50%
02:00 +20°C° 0.1 mm 6 mps 729 mmHg 52%
03:00 +20°C° 0.1 mm 5 mps 729 mmHg 54%
04:00 +19°C° 0 mm 4 mps 729 mmHg 54%
05:00 +17°C° 0 mm 3 mps 729 mmHg 54%
06:00 +16°C° 0 mm 2 mps 729 mmHg 55%
07:00 +17°C° 0 mm 2 mps 729 mmHg 51%
08:00 +18°C° 0 mm 2 mps 729 mmHg 48%
09:00 +19°C° 0 mm 2 mps 730 mmHg 44%
10:00 +21°C° 0 mm 2 mps 730 mmHg 41%
11:00 +23°C° 0 mm 2 mps 730 mmHg 37%
12:00 +24°C° 0 mm 1 mps 730 mmHg 34%
13:00 +24°C° 0 mm 1 mps 730 mmHg 32%
14:00 +25°C° 0 mm 1 mps 730 mmHg 30%
15:00 +23°C° 0 mm 0 mps 730 mmHg 28%
16:00 +24°C° 0 mm 1 mps 730 mmHg 30%
17:00 +23°C° 0 mm 2 mps 730 mmHg 32%
18:00 +23°C° 0 mm 2 mps 730 mmHg 34%
19:00 +21°C° 0 mm 3 mps 730 mmHg 37%
20:00 +20°C° 0 mm 3 mps 730 mmHg 41%
21:00 +19°C° 0 mm 3 mps 730 mmHg 44%
22:00 +18°C° 0 mm 3 mps 729 mmHg 47%
23:00 +17°C° 0 mm 3 mps 729 mmHg 50%

26 September, Saturday

Time Temperature Precipitation Wind Pressure Humidity
00:00 +16°C° 0 mm 3 mps 729 mmHg 53%
01:00 +16°C° 0 mm 3 mps 729 mmHg 55%
02:00 +14°C° 0 mm 3 mps 729 mmHg 57%
03:00 +13°C° 0 mm 3 mps 729 mmHg 60%
04:00 +13°C° 0.1 mm 3 mps 729 mmHg 61%
05:00 +12°C° 0.1 mm 3 mps 729 mmHg 62%
06:00 +12°C° 0.1 mm 3 mps 729 mmHg 63%
07:00 +13°C° 0 mm 3 mps 729 mmHg 59%
08:00 +14°C° 0 mm 4 mps 730 mmHg 55%
09:00 +17°C° 0 mm 4 mps 730 mmHg 51%
10:00 +18°C° 0.2 mm 4 mps 730 mmHg 50%
11:00 +19°C° 0.2 mm 5 mps 731 mmHg 49%
12:00 +20°C° 0.2 mm 5 mps 731 mmHg 48%
13:00 +20°C° 0 mm 5 mps 731 mmHg 43%
14:00 +21°C° 0 mm 6 mps 732 mmHg 39%
15:00 +22°C° 0 mm 6 mps 732 mmHg 34%
16:00 +21°C° 0 mm 5 mps 733 mmHg 37%
17:00 +19°C° 0 mm 4 mps 733 mmHg 39%
18:00 +18°C° 0 mm 2 mps 733 mmHg 42%
19:00 +17°C° 0 mm 2 mps 733 mmHg 45%
20:00 +16°C° 0 mm 2 mps 734 mmHg 48%
21:00 +15°C° 0 mm 1 mps 734 mmHg 50%
22:00 +15°C° 0 mm 2 mps 734 mmHg 52%
23:00 +14°C° 0 mm 2 mps 734 mmHg 53%

27 September, Sunday

Time Temperature Precipitation Wind Pressure Humidity
00:00 +14°C° 0 mm 2 mps 734 mmHg 54%
01:00 +13°C° 0 mm 2 mps 734 mmHg 54%
02:00 +13°C° 0 mm 2 mps 733 mmHg 54%
03:00 +12°C° 0 mm 2 mps 733 mmHg 54%
04:00 +13°C° 0 mm 2 mps 732 mmHg 51%
05:00 +12°C° 0 mm 3 mps 732 mmHg 49%
06:00 +12°C° 0 mm 3 mps 732 mmHg 47%
07:00 +13°C° 0.1 mm 3 mps 731 mmHg 50%
08:00 +13°C° 0.1 mm 4 mps 730 mmHg 53%
09:00 +14°C° 0.1 mm 4 mps 729 mmHg 56%
10:00 +13°C° 2.2 mm 5 mps 729 mmHg 67%
11:00 +12°C° 2.2 mm 5 mps 728 mmHg 77%
12:00 +10°C° 2.2 mm 5 mps 727 mmHg 88%
13:00 +10°C° 0.8 mm 5 mps 727 mmHg 88%
14:00 +11°C° 0.8 mm 4 mps 727 mmHg 88%
15:00 +11°C° 0.8 mm 3 mps 727 mmHg 88%
16:00 +11°C° 0.5 mm 4 mps 728 mmHg 88%
17:00 +10°C° 0.5 mm 5 mps 729 mmHg 87%
18:00 +10°C° 0.5 mm 6 mps 729 mmHg 86%
19:00 +9°C° 0 mm 5 mps 730 mmHg 88%
20:00 +8°C° 0 mm 4 mps 730 mmHg 90%
21:00 +9°C° 0 mm 3 mps 730 mmHg 92%
22:00 +9°C° 0.1 mm 3 mps 730 mmHg 91%
23:00 +9°C° 0.1 mm 3 mps 730 mmHg 90%
Show more